Flag for U.S.A. Weather past 2 weeks in Citrus Heights, California, U.S.A.

Now
66 °F

Clear.


Feels Like: 66 °F
Forecast: 55 / 83 °F
Wind: 3 mph from North

Location: Mather Field

Current Time: Sep 30, 2014 at 11:27:13 PM

Latest Report: Sep 30, 2014 at 9:45 PM


Visibility: 10 mi

Pressure: 29.82 "Hg

Humidity: 64%

Dew point: 54 °F

Location of Citrus HeightsLocation

Historic Weather in Citrus Heights — Graph

°F

Citrus Heights temperature yesterday

Maximum temperature yesterday: 81 °F (at 3:46 PM)
Minimum temperature yesterday: 50 °F (at 6:45 AM)
Average temperature yesterday: 65 °F

Past Weeks' High & Low Weather Summary

 TemperatureHumidityPressure
High90 °F (Sep 16, 3:50 PM)100% (Sep 19, 4:55 AM)30.03 "Hg (Sep 19, 4:55 AM)
Low50 °F (Sep 29, 6:45 AM)18% (Sep 16, 3:50 PM)29.70 "Hg (Sep 17, 5:59 PM)
Average69 °F66%29.89 "Hg
* Reported Sep 15 9:50 PM — Sep 30 9:45 PM, Citrus Heights, Weather by CustomWeather, © 2014

Note: Actual official high and low records may vary slightly from our data, if they occured in-between our weather recording intervals... More about our weather records

Advertising

Citrus Heights weather history for previous 24 hours

 ConditionsComfort  
Time TempWeatherWind HumidityBarometerVisibility
9:45 PM
Sep 30
66 °FClear.3 mph64%29.82 "Hg10 mi
8:45 PM72 °FClear.5 mph53%29.82 "Hg10 mi
7:45 PM75 °FSunny.6 mph47%29.82 "Hg10 mi
5:45 PM81 °FSunny.10 mph39%29.82 "Hg10 mi
4:45 PM81 °FPleasantly warm.10 mph39%29.82 "HgN/A
3:55 PM81 °FSunny.8 mph39%29.84 "Hg10 mi
2:55 PM81 °FSunny.9 mph39%29.85 "Hg10 mi
1:50 PM77 °FPassing clouds.5 mph47%29.89 "Hg10 mi
12:50 PM72 °FPassing clouds.5 mph57%29.92 "Hg10 mi
11:46 AM72 °FScattered clouds.5 mph57%29.92 "Hg10 mi
10:46 AM70 °FScattered clouds.5 mph60%29.94 "Hg10 mi
9:46 AM66 °FScattered clouds.6 mph68%29.95 "Hg10 mi
8:46 AM63 °FPassing clouds.3 mph83%29.95 "Hg10 mi
7:46 AM55 °FClear.6 mph100%29.94 "Hg10 mi
6:46 AM57 °FClear.8 mph100%29.93 "Hg10 mi
5:45 AM55 °FClear.7 mph100%29.93 "Hg10 mi
4:47 AM55 °FClear.6 mph100%29.92 "Hg10 mi
3:55 AM55 °FClear.6 mph100%29.92 "Hg10 mi
2:55 AM57 °FClear.7 mph100%29.93 "Hg10 mi
Weather by CustomWeather, © 2014

See weather overviewHow to use our weather pages